Regional Weather Roundup
Issued by NWS

Home | Current Version | Previous Version | Graphics & Text | Print | Product List | Glossary On
Versions: 1 2 3 4 5 6 7 8 9 10 11 12 13 14 15 16 17 18 19 20 21 22 23 24 25 26 27 28 29 30 31 32 33 34 35 36 37 38 39 40 41 42 43 44 45 46 47 48 49 50
000
ASUS43 KLMK 220702
RWRKY
KENTUCKY REGIONAL WEATHER ROUNDUP
NATIONAL WEATHER SERVICE LOUISVILLE KY
300 AM EDT FRI SEP 22 2017

NOTE "FAIR" INDICATES FEW OR NO CLOUDS BELOW 12,000 FEET
WITH NO SIGNIFICANT WEATHER AND/OR OBSTRUCTIONS TO VISIBILITY.

KYZ001>023-026-027-061>063-070>075-220800-
WESTERN AND SOUTH CENTRAL KENTUCKY

CITY           SKY/WX    TMP DP  RH WIND       PRES   REMARKS
PADUCAH        CLEAR     71  68  90 CALM      30.03S FOG
HENDERSON      CLEAR     69  68  96 CALM      30.05S
OWENSBORO      CLEAR     73  70  90 CALM      30.05S
HOPKINSVILLE   NOT AVBL
BOWLING GREEN  CLEAR     70  69  97 CALM      30.06S
GLASGOW        CLEAR    N/A N/A N/A CALM      30.07F FOG
$$

KYZ024-025-028>034-038-045-046-053-220800-
NORTH CENTRAL KENTUCKY

CITY           SKY/WX    TMP DP  RH WIND       PRES   REMARKS
LOUISVILLE/SDF PTCLDY    75  70  84 CALM      30.06F
LOUISVILLE/LOU MOCLDY    71  71 100 CALM      30.08S
FORT KNOX      CLEAR     67  67 100 N3        30.06F FOG
$$

KYZ035>037-039>044-047>052-055>060-089>105-220800-
NORTHEAST KENTUCKY

CITY           SKY/WX    TMP DP  RH WIND       PRES   REMARKS
LEXINGTON      CLEAR     69  65  86 CALM      30.09F
COVINGTON      PTCLDY    71  69  93 CALM      30.09S
FRANKFORT      CLEAR     69  66  90 CALM      30.08S FOG
$$

KYZ054-064>069-076>088-106>120-220800-
SOUTHEAST KENTUCKY

CITY           SKY/WX    TMP DP  RH WIND       PRES   REMARKS
JACKSON        CLEAR     68  66  93 CALM      30.10F
LONDON         CLEAR     65  63  93 CALM      30.09F
SOMERSET       NOT AVBL
MIDDLESBORO    CLOUDY    63  63 100 CALM      30.11S FOG
MONTICELLO     FOG       61  61 100 N10       30.10S VSB 1/2
$$





USA.gov is the U.S. government's official web portal to all federal, state and local government web resources and services.